Time,TemperatureF,DewpointF,PressureIn,WindDirection,WindDirectionDegrees,WindSpeedMPH,WindSpeedGustMPH,Humidity,HourlyPrecipIn,Conditions,Clouds,dailyrainin,SoftwareType,DateUTC
2013-03-08 00:02:00,32.0,32.0,29.96,NNW,344,7.0,48.0,99,0.00,,,0.00,,2013-03-08 05:02:00,
2013-03-08 00:12:00,32.0,32.0,29.96,NNW,344,7.0,48.0,99,0.00,,,0.00,,2013-03-08 05:12:00,
2013-03-08 00:22:00,32.0,32.0,29.96,NNW,344,7.0,48.0,99,0.00,,,0.00,,2013-03-08 05:22:00,
2013-03-08 00:52:00,32.0,32.0,29.95,NNE,21,9.0,0.0,99,0.00,,,0.00,,2013-03-08 05:52:00,
2013-03-08 01:02:00,32.0,32.0,29.95,NNE,21,9.0,0.0,99,0.00,,,0.00,,2013-03-08 06:02:00,
2013-03-08 01:11:00,32.0,32.0,29.95,NNE,21,9.0,0.0,99,0.00,,,0.00,,2013-03-08 06:11:00,
2013-03-08 01:22:00,33.0,33.0,29.95,NNE,20,9.0,27.0,99,0.00,,,0.00,,2013-03-08 06:22:00,
2013-03-08 01:32:00,33.0,33.0,29.95,NNE,20,9.0,27.0,99,0.00,,,0.00,,2013-03-08 06:32:00,
2013-03-08 01:42:00,33.0,33.0,29.95,NNE,20,9.0,27.0,99,0.00,,,0.00,,2013-03-08 06:42:00,
2013-03-08 01:52:00,33.0,33.0,29.94,North,355,10.0,27.0,99,0.00,,,0.00,,2013-03-08 06:52:00,
2013-03-08 02:01:00,33.0,33.0,29.94,North,355,10.0,27.0,99,0.00,,,0.00,,2013-03-08 07:01:00,
2013-03-08 02:11:00,33.0,33.0,29.94,North,355,10.0,27.0,99,0.00,,,0.00,,2013-03-08 07:11:00,
2013-03-08 02:22:00,33.0,33.0,29.93,North,4,8.0,27.0,99,0.00,,,0.00,,2013-03-08 07:22:00,
2013-03-08 02:30:00,32.0,32.0,29.93,North,9,10.0,28.0,99,0.00,,,0.00,,2013-03-08 07:30:00,
2013-03-08 02:32:00,33.0,33.0,29.93,North,4,8.0,27.0,99,0.00,,,0.00,,2013-03-08 07:32:00,
2013-03-08 02:42:00,33.0,33.0,29.93,North,4,8.0,27.0,99,0.00,,,0.00,,2013-03-08 07:42:00,
2013-03-08 02:52:00,32.0,32.0,29.93,North,9,10.0,28.0,99,0.00,,,0.00,,2013-03-08 07:52:00,
2013-03-08 03:01:00,32.0,32.0,29.93,North,9,10.0,28.0,99,0.00,,,0.00,,2013-03-08 08:01:00,
2013-03-08 03:11:00,32.0,32.0,29.93,North,9,10.0,28.0,99,0.00,,,0.00,,2013-03-08 08:11:00,
2013-03-08 03:22:00,32.0,32.0,29.93,North,9,10.0,28.0,99,0.00,,,0.00,,2013-03-08 08:22:00,
2013-03-08 04:30:00,30.0,30.0,29.93,NNE,13,8.0,28.0,99,0.00,,,0.00,,2013-03-08 09:30:00,
2013-03-08 04:52:00,30.0,30.0,29.93,NNE,13,8.0,28.0,99,0.00,,,0.00,,2013-03-08 09:52:00,
2013-03-08 05:01:00,30.0,30.0,29.93,NNE,13,8.0,28.0,99,0.00,,,0.00,,2013-03-08 10:01:00,
2013-03-08 05:11:00,30.0,30.0,29.93,NNE,13,8.0,28.0,99,0.00,,,0.00,,2013-03-08 10:11:00,
2013-03-08 05:21:00,30.0,30.0,29.93,NNE,13,8.0,28.0,99,0.00,,,0.00,,2013-03-08 10:21:00,
2013-03-08 05:52:00,30.0,30.0,29.93,North,0,6.0,28.0,99,0.00,,,0.00,,2013-03-08 10:52:00,
2013-03-08 06:00:00,30.0,30.0,29.93,North,357,3.0,28.0,99,0.00,,,0.00,,2013-03-08 11:00:00,
2013-03-08 06:01:00,30.0,30.0,29.93,North,0,6.0,28.0,99,0.00,,,0.00,,2013-03-08 11:01:00,
2013-03-08 06:11:00,30.0,30.0,29.93,North,0,6.0,28.0,99,0.00,,,0.00,,2013-03-08 11:11:00,
2013-03-08 06:21:00,30.0,30.0,29.93,North,357,3.0,28.0,99,0.00,,,0.00,,2013-03-08 11:21:00,
2013-03-08 06:32:00,30.0,30.0,29.93,North,357,3.0,28.0,99,0.00,,,0.00,,2013-03-08 11:32:00,
2013-03-08 06:42:00,30.0,30.0,29.93,North,357,3.0,28.0,99,0.00,,,0.00,,2013-03-08 11:42:00,
2013-03-08 06:52:00,30.0,30.0,29.93,North,357,3.0,28.0,99,0.00,,,0.00,,2013-03-08 11:52:00,
2013-03-08 07:22:00,30.0,30.0,29.93,NNE,30,8.0,28.0,99,0.00,,,0.00,,2013-03-08 12:22:00,
2013-03-08 07:32:00,30.0,30.0,29.93,NNE,30,8.0,28.0,99,0.00,,,0.00,,2013-03-08 12:32:00,
2013-03-08 07:43:00,30.0,30.0,29.93,NNE,30,8.0,28.0,99,0.00,,,0.00,,2013-03-08 12:43:00,
2013-03-08 07:53:00,30.0,30.0,29.94,NNE,14,7.0,28.0,99,0.00,,,0.00,,2013-03-08 12:53:00,
2013-03-08 08:01:00,30.0,30.0,29.94,NNE,14,7.0,28.0,99,0.00,,,0.00,,2013-03-08 13:01:00,
2013-03-08 08:11:00,30.0,30.0,29.94,NNE,14,7.0,28.0,99,0.00,,,0.00,,2013-03-08 13:11:00,
2013-03-08 08:22:00,30.0,30.0,29.94,NNE,16,8.0,28.0,99,0.00,,,0.00,,2013-03-08 13:22:00,
2013-03-08 08:32:00,30.0,30.0,29.94,NNE,16,8.0,28.0,99,0.00,,,0.00,,2013-03-08 13:32:00,
2013-03-08 08:42:00,30.0,30.0,29.94,NNE,16,8.0,28.0,99,0.00,,,0.00,,2013-03-08 13:42:00,
2013-03-08 08:52:00,31.0,31.0,29.94,NNE,29,7.0,28.0,99,0.00,,,0.00,,2013-03-08 13:52:00,
2013-03-08 09:02:00,31.0,31.0,29.94,NNE,29,7.0,28.0,99,0.00,,,0.00,,2013-03-08 14:02:00,
2013-03-08 09:12:00,31.0,31.0,29.94,NNE,29,7.0,28.0,99,0.00,,,0.00,,2013-03-08 14:12:00,
2013-03-08 09:22:00,31.0,31.0,29.94,NNW,332,6.0,28.0,99,0.00,,,0.00,,2013-03-08 14:22:00,
2013-03-08 09:32:00,31.0,31.0,29.94,NNW,332,6.0,28.0,99,0.00,,,0.00,,2013-03-08 14:32:00,
2013-03-08 09:42:00,31.0,31.0,29.94,NNW,332,6.0,28.0,99,0.00,,,0.00,,2013-03-08 14:42:00,
2013-03-08 09:53:00,31.0,31.0,29.95,NNE,23,8.0,28.0,99,0.00,,,0.00,,2013-03-08 14:53:00,
2013-03-08 10:03:00,31.0,31.0,29.95,NNE,23,8.0,28.0,99,0.00,,,0.00,,2013-03-08 15:03:00,
2013-03-08 10:12:00,31.0,31.0,29.95,NNE,19,10.0,28.0,99,0.00,,,0.00,,2013-03-08 15:12:00,
2013-03-08 10:22:00,31.0,31.0,29.95,NNE,19,10.0,28.0,99,0.00,,,0.00,,2013-03-08 15:22:00,
2013-03-08 10:30:00,31.0,31.0,29.95,NNE,16,9.0,28.0,99,0.00,,,0.00,,2013-03-08 15:30:00,
2013-03-08 10:32:00,31.0,31.0,29.95,NNE,19,10.0,28.0,99,0.00,,,0.00,,2013-03-08 15:32:00,
2013-03-08 10:43:00,31.0,31.0,29.95,NNE,19,10.0,28.0,99,0.00,,,0.00,,2013-03-08 15:43:00,
2013-03-08 10:53:00,31.0,31.0,29.95,NNE,16,9.0,28.0,99,0.00,,,0.00,,2013-03-08 15:53:00,
2013-03-08 11:01:00,31.0,31.0,29.95,NNE,16,9.0,28.0,99,0.00,,,0.00,,2013-03-08 16:01:00,
2013-03-08 11:12:00,31.0,31.0,29.95,NNE,16,9.0,28.0,99,0.00,,,0.00,,2013-03-08 16:12:00,
2013-03-08 11:22:00,31.0,31.0,29.95,NNE,16,9.0,28.0,99,0.00,,,0.00,,2013-03-08 16:22:00,
2013-03-08 12:22:00,31.0,31.0,29.97,NNE,33,8.0,28.0,99,0.00,,,0.00,,2013-03-08 17:22:00,
2013-03-08 12:32:00,31.0,31.0,29.97,NNE,33,8.0,28.0,99,0.00,,,0.00,,2013-03-08 17:32:00,
2013-03-08 12:42:00,31.0,31.0,29.97,NNE,33,8.0,28.0,99,0.00,,,0.00,,2013-03-08 17:42:00,
2013-03-08 12:52:00,32.0,32.0,29.96,NE,38,6.0,28.0,99,0.00,,,0.00,,2013-03-08 17:52:00,
2013-03-08 13:02:00,32.0,32.0,29.96,NE,38,6.0,28.0,99,0.00,,,0.00,,2013-03-08 18:02:00,
2013-03-08 13:12:00,32.0,32.0,29.96,NE,38,6.0,28.0,99,0.00,,,0.00,,2013-03-08 18:12:00,
2013-03-08 13:21:00,32.0,32.0,29.97,NNE,28,11.0,28.0,99,0.00,,,0.00,,2013-03-08 18:21:00,
2013-03-08 13:30:00,32.0,32.0,29.97,NNE,29,11.0,28.0,99,0.01,,,0.01,,2013-03-08 18:30:00,
2013-03-08 13:32:00,32.0,32.0,29.97,NNE,28,11.0,28.0,99,0.00,,,0.00,,2013-03-08 18:32:00,
2013-03-08 13:42:00,32.0,32.0,29.97,NNE,28,11.0,28.0,99,0.00,,,0.00,,2013-03-08 18:42:00,
2013-03-08 13:52:00,32.0,32.0,29.97,NNE,29,11.0,28.0,99,0.01,,,0.01,,2013-03-08 18:52:00,
2013-03-08 14:01:00,32.0,32.0,29.97,NNE,29,11.0,28.0,99,0.01,,,0.01,,2013-03-08 19:01:00,
2013-03-08 14:11:00,32.0,32.0,29.97,NNE,29,11.0,28.0,99,0.01,,,0.01,,2013-03-08 19:11:00,
2013-03-08 14:22:00,32.0,32.0,29.97,NNE,29,11.0,28.0,99,0.01,,,0.01,,2013-03-08 19:22:00,
2013-03-08 14:52:00,33.0,33.0,29.99,NNE,19,11.0,32.0,99,0.00,,,0.01,,2013-03-08 19:52:00,
2013-03-08 15:01:00,33.0,33.0,29.99,NNE,19,11.0,32.0,99,0.00,,,0.01,,2013-03-08 20:01:00,
2013-03-08 15:11:00,33.0,33.0,29.99,NNE,19,11.0,32.0,99,0.00,,,0.01,,2013-03-08 20:11:00,
2013-03-08 15:22:00,34.0,34.0,29.99,NNE,19,12.0,32.0,99,0.01,,,0.02,,2013-03-08 20:22:00,
2013-03-08 15:32:00,34.0,34.0,29.99,NNE,19,12.0,32.0,99,0.01,,,0.02,,2013-03-08 20:32:00,
2013-03-08 15:42:00,34.0,34.0,29.99,NNE,19,12.0,32.0,99,0.01,,,0.02,,2013-03-08 20:42:00,
2013-03-08 15:53:00,35.0,35.0,30.01,North,11,14.0,32.0,99,0.01,,,0.02,,2013-03-08 20:53:00,
2013-03-08 16:02:00,35.0,35.0,30.01,North,11,14.0,32.0,99,0.01,,,0.02,,2013-03-08 21:02:00,
2013-03-08 16:11:00,35.0,35.0,30.01,North,11,14.0,32.0,99,0.01,,,0.02,,2013-03-08 21:11:00,
2013-03-08 16:22:00,35.0,35.0,30.01,NE,39,13.0,33.0,99,0.00,,,0.02,,2013-03-08 21:22:00,
2013-03-08 16:32:00,35.0,35.0,30.01,NE,39,13.0,33.0,99,0.00,,,0.02,,2013-03-08 21:32:00,
2013-03-08 16:42:00,35.0,35.0,30.01,NE,39,13.0,33.0,99,0.00,,,0.02,,2013-03-08 21:42:00,
2013-03-08 16:52:00,36.0,36.0,30.02,NNE,31,11.0,33.0,99,0.00,,,0.02,,2013-03-08 21:52:00,
2013-03-08 17:01:00,36.0,36.0,30.02,NNE,31,11.0,33.0,99,0.00,,,0.02,,2013-03-08 22:01:00,
2013-03-08 17:12:00,36.0,36.0,30.02,NNE,31,11.0,33.0,99,0.00,,,0.02,,2013-03-08 22:12:00,
2013-03-08 17:22:00,36.0,36.0,30.03,NNE,20,14.0,33.0,99,0.01,,,0.03,,2013-03-08 22:22:00,
2013-03-08 17:32:00,36.0,36.0,30.03,NNE,20,14.0,33.0,99,0.01,,,0.03,,2013-03-08 22:32:00,
2013-03-08 17:42:00,36.0,36.0,30.03,NNE,20,14.0,33.0,99,0.01,,,0.03,,2013-03-08 22:42:00,
2013-03-08 17:53:00,35.0,35.0,30.05,NNE,30,10.0,36.0,99,0.03,,,0.05,,2013-03-08 22:53:00,
2013-03-08 18:01:00,35.0,35.0,30.05,NNE,30,10.0,36.0,99,0.03,,,0.05,,2013-03-08 23:01:00,
2013-03-08 18:12:00,35.0,35.0,30.05,NNE,30,10.0,36.0,99,0.03,,,0.05,,2013-03-08 23:12:00,
2013-03-08 18:22:00,35.0,35.0,30.06,NNE,28,12.0,36.0,99,0.05,,,0.08,,2013-03-08 23:22:00,
2013-03-08 18:32:00,35.0,35.0,30.06,NNE,28,12.0,36.0,99,0.05,,,0.08,,2013-03-08 23:32:00,
2013-03-08 18:42:00,35.0,35.0,30.06,NNE,28,12.0,36.0,99,0.05,,,0.08,,2013-03-08 23:42:00,
2013-03-08 18:53:00,36.0,36.0,30.08,NNE,24,12.0,36.0,99,0.06,,,0.11,,2013-03-08 23:53:00,
2013-03-08 19:02:00,36.0,36.0,30.08,NNE,24,12.0,36.0,99,0.06,,,0.11,,2013-03-09 00:02:00,
2013-03-08 19:12:00,36.0,36.0,30.08,NNE,24,12.0,36.0,99,0.06,,,0.11,,2013-03-09 00:12:00,
2013-03-08 19:22:00,36.0,36.0,30.08,NNE,24,12.0,36.0,99,0.06,,,0.11,,2013-03-09 00:22:00,
2013-03-08 19:32:00,36.0,36.0,30.08,North,8,11.0,36.0,99,0.06,,,0.14,,2013-03-09 00:32:00,
2013-03-08 19:42:00,36.0,36.0,30.08,North,8,11.0,36.0,99,0.06,,,0.14,,2013-03-09 00:42:00,
2013-03-08 19:52:00,36.0,36.0,30.08,North,8,11.0,36.0,99,0.06,,,0.14,,2013-03-09 00:52:00,
2013-03-08 20:00:00,38.0,36.0,30.09,North,4,5.0,36.0,92,0.03,,,0.17,,2013-03-09 01:00:00,
2013-03-08 20:02:00,36.0,36.0,30.08,North,8,11.0,36.0,99,0.06,,,0.14,,2013-03-09 01:02:00,
2013-03-08 20:12:00,38.0,36.0,30.09,North,4,5.0,36.0,92,0.03,,,0.17,,2013-03-09 01:12:00,
2013-03-08 20:22:00,38.0,36.0,30.09,North,4,5.0,36.0,92,0.03,,,0.17,,2013-03-09 01:22:00,
2013-03-08 20:32:00,38.0,36.0,30.09,North,4,5.0,36.0,92,0.03,,,0.17,,2013-03-09 01:32:00,
2013-03-08 20:42:00,38.0,36.0,30.09,North,4,5.0,36.0,92,0.03,,,0.17,,2013-03-09 01:42:00,
2013-03-08 20:52:00,38.0,36.0,30.09,North,4,5.0,36.0,92,0.03,,,0.17,,2013-03-09 01:52:00,
2013-03-08 21:00:00,40.0,35.0,30.11,North,6,10.0,36.0,82,0.02,,,0.19,,2013-03-09 02:00:00,
2013-03-08 21:21:00,40.0,35.0,30.11,North,6,10.0,36.0,82,0.02,,,0.19,,2013-03-09 02:21:00,
2013-03-08 21:31:00,40.0,35.0,30.11,North,6,10.0,36.0,82,0.02,,,0.19,,2013-03-09 02:31:00,
2013-03-08 21:41:00,40.0,35.0,30.11,North,6,10.0,36.0,82,0.02,,,0.19,,2013-03-09 02:41:00,
2013-03-08 21:51:00,40.0,35.0,30.11,North,6,10.0,36.0,82,0.02,,,0.19,,2013-03-09 02:51:00,
2013-03-08 22:22:00,40.0,33.0,30.12,NNE,14,7.0,36.0,76,0.01,,,0.20,,2013-03-09 03:22:00,
2013-03-08 22:32:00,40.0,33.0,30.12,NNE,14,7.0,36.0,76,0.01,,,0.20,,2013-03-09 03:32:00,
2013-03-08 22:42:00,40.0,33.0,30.12,NNE,14,7.0,36.0,76,0.01,,,0.20,,2013-03-09 03:42:00,
2013-03-08 22:52:00,40.0,32.0,30.12,NNE,16,10.0,36.0,74,0.01,,,0.21,,2013-03-09 03:52:00,
2013-03-08 23:01:00,40.0,32.0,30.12,NNE,16,10.0,36.0,74,0.01,,,0.21,,2013-03-09 04:01:00,
2013-03-08 23:11:00,40.0,32.0,30.12,NNE,16,10.0,36.0,74,0.01,,,0.21,,2013-03-09 04:11:00,
2013-03-08 23:22:00,40.0,32.0,30.12,NNE,22,9.0,36.0,72,0.01,,,0.21,,2013-03-09 04:22:00,
2013-03-08 23:32:00,40.0,32.0,30.12,NNE,22,9.0,36.0,72,0.01,,,0.21,,2013-03-09 04:32:00,
2013-03-08 23:42:00,40.0,32.0,30.12,NNE,22,9.0,36.0,72,0.01,,,0.21,,2013-03-09 04:42:00,
2013-03-08 23:52:00,40.0,32.0,30.12,NNE,14,8.0,36.0,72,0.01,,,0.22,,2013-03-09 04:52:00,